Moline, IL

9:59 AM CDT on April 25, 2017 (GMT -0500)
Quad-City International

Weather History for KMLI - March, 2014

Change the Weather History Date:

Wednesday, March 19, 2014

  Actual Average Record
Temperature  
Mean Temperature 35 °F 40 °F  
Max Temperature 44 °F 50 °F 79 °F (2012)
Min Temperature 26 °F 31 °F -10 °F (1923)
Degree Days  
Heating Degree Days 30 25  
Month to date heating degree days 695 543  
Since 1 July heating degree days 6365 5341  
Cooling Degree Days 0 0  
Month to date cooling degree days 0 0  
Year to date cooling degree days 0 0  
Moisture  
Dew Point 32 °F    
Average Humidity 82    
Maximum Humidity 100    
Minimum Humidity 64    
Precipitation  
Precipitation T in 0.09 in 1.84 in (1948)
Month to date precipitation 0.67 1.70  
Year to date precipitation 4.69 4.79  
Snow  
Snow 0.00 in 0.20 in - ()
Month to date snowfall 9.4 2.9  
Since 1 July snowfall 64.2 29.6  
Snow Depth 0.00 in    
Sea Level Pressure  
Sea Level Pressure 29.81 in    
Wind  
Wind Speed 12 mph (WNW)    
Max Wind Speed 28 mph    
Max Gust Speed 36 mph    
Visibility 6 miles    
Events Rain    
T = Trace of Precipitation, MM = Missing Value Source: NWS Daily Summary

Daily Weather History Graph

Daily Weather History Graph

Search for Another Location

Airport or City:

Trip Planner

Search our weather history database for the weather conditions in past years. The results will help you decide how hot, cold, wet, or windy it might be!

Date:

Astronomy

Mar. 19, 2014 Rise Set
Actual Time 7:07 AM CDT 7:13 PM CDT
Civil Twilight 6:39 AM CDT 7:40 PM CDT
Nautical Twilight 6:07 AM CDT 8:13 PM CDT
Astronomical Twilight 5:34 AM CDT 8:46 PM CDT
Moon 10:34 PM CDT (3/19) 8:30 AM CDT (3/19)
Length of Visible Light 13h 01m
Length of Day
12h 06m
Waning Gibbous, 91% of the Moon is Illuminated
Mar 19
Waning Gibbous
Mar 23
Last Quarter
Mar 30
New
Apr 7
First Quarter
Apr 15
Full

Hourly Weather History & Observations

Time (CDT) Temp. Windchill Dew Point Humidity Pressure Visibility Wind Dir Wind Speed Gust Speed Precip Events Conditions
12:52 AM 43.0 °F 40.3 °F 39.0 °F 86% 29.60 in 5.0 mi ESE 4.6 mph - 0.01 in   Overcast
1:52 AM 43.0 °F 39.5 °F 39.0 °F 86% 29.58 in 6.0 mi SSE 5.8 mph - N/A   Overcast
2:52 AM 43.0 °F 41.3 °F 39.0 °F 86% 29.56 in 7.0 mi SE 3.5 mph - N/A   Overcast
3:52 AM 42.1 °F 40.2 °F 37.9 °F 85% 29.53 in 6.0 mi SE 3.5 mph - N/A   Overcast
4:52 AM 41.0 °F - 37.9 °F 89% 29.55 in 6.0 mi Calm Calm - N/A   Overcast
5:52 AM 42.1 °F 36.1 °F 39.0 °F 89% 29.58 in 6.0 mi West 10.4 mph - N/A   Overcast
6:39 AM 42.8 °F 38.6 °F 39.2 °F 87% 29.60 in 4.0 mi WNW 6.9 mph - 0.00 in Rain Light Rain
6:52 AM 42.1 °F 34.9 °F 39.0 °F 89% 29.62 in 4.0 mi West 13.8 mph - 0.00 in   Overcast
7:16 AM 41.0 °F 32.2 °F 37.4 °F 87% 29.63 in 1.8 mi WNW 18.4 mph 23.0 mph N/A   Overcast
7:47 AM 39.2 °F 30.2 °F 37.4 °F 93% 29.66 in 0.8 mi West 17.3 mph 25.3 mph N/A   Overcast
7:52 AM 37.9 °F 28.2 °F 37.0 °F 97% 29.68 in 0.8 mi WNW 18.4 mph 26.5 mph N/A   Overcast
8:33 AM 37.4 °F 27.5 °F 35.6 °F 93% 29.70 in 1.8 mi WNW 18.4 mph 26.5 mph N/A   Overcast
8:52 AM 37.0 °F 27.0 °F 34.0 °F 89% 29.72 in 1.8 mi WNW 18.4 mph 33.4 mph N/A   Overcast
9:32 AM 35.6 °F 25.2 °F 33.8 °F 93% 29.73 in 1.8 mi WNW 18.4 mph 25.3 mph N/A   Overcast
9:52 AM 36.0 °F 26.3 °F 33.1 °F 89% 29.76 in 2.0 mi WNW 16.1 mph 25.3 mph N/A   Overcast
10:02 AM 37.4 °F 27.5 °F 33.8 °F 87% 29.76 in 3.0 mi WNW 18.4 mph 26.5 mph N/A   Overcast
10:52 AM 37.9 °F 28.5 °F 34.0 °F 86% 29.81 in 3.0 mi WNW 17.3 mph 28.8 mph N/A   Overcast
11:30 AM 37.4 °F 28.5 °F 32.0 °F 81% 29.82 in 4.0 mi WNW 15.0 mph 26.5 mph N/A   Haze
11:52 AM 37.9 °F 28.2 °F 32.0 °F 79% 29.85 in 4.0 mi WNW 18.4 mph 28.8 mph N/A   Haze
12:52 PM 36.0 °F 25.3 °F 30.0 °F 79% 29.89 in 6.0 mi West 19.6 mph 27.6 mph N/A   Haze
1:52 PM 36.0 °F 25.3 °F 28.9 °F 76% 29.91 in 6.0 mi WNW 19.6 mph 32.2 mph N/A   Haze
2:52 PM 37.0 °F 26.4 °F 28.0 °F 70% 29.92 in 6.0 mi West 20.7 mph 31.1 mph N/A   Haze
3:52 PM 37.9 °F 27.9 °F 27.0 °F 65% 29.94 in 8.0 mi West 19.6 mph 32.2 mph N/A   Overcast
4:31 PM 37.4 °F 28.2 °F 26.6 °F 65% 29.94 in 9.0 mi WNW 16.1 mph 32.2 mph N/A   Overcast
4:52 PM 37.9 °F 27.9 °F 26.1 °F 62% 29.97 in 10.0 mi West 19.6 mph 32.2 mph N/A   Overcast
5:48 PM 35.6 °F 25.2 °F 26.6 °F 70% 29.99 in 9.0 mi West 18.4 mph 29.9 mph N/A   Overcast
5:52 PM 36.0 °F 25.3 °F 25.0 °F 64% 30.00 in 9.0 mi West 19.6 mph 29.9 mph N/A   Overcast
6:00 PM 35.6 °F 23.7 °F 24.8 °F 65% 29.99 in 10.0 mi WNW 24.2 mph 35.7 mph N/A   Overcast
6:52 PM 36.0 °F 26.0 °F 24.1 °F 62% 30.03 in 10.0 mi WNW 17.3 mph 25.3 mph N/A   Overcast
7:52 PM 36.0 °F 28.0 °F 25.0 °F 64% 30.06 in 10.0 mi WNW 11.5 mph - N/A   Overcast
8:52 PM 36.0 °F 29.0 °F 25.0 °F 64% 30.06 in 10.0 mi West 9.2 mph - N/A   Overcast
9:52 PM 30.9 °F 26.2 °F 25.0 °F 79% 30.07 in 10.0 mi WSW 4.6 mph - N/A   Clear
10:52 PM 28.9 °F - 24.1 °F 82% 30.07 in 10.0 mi Calm Calm - N/A   Clear
11:52 PM 28.9 °F - 24.1 °F 82% 30.08 in 10.0 mi Calm Calm - N/A   Clear